Wind_Speed
3 2 2 1 1 0 1 1 1 2 3 4 5 5 5 6 6 7 8 8 8 8 8 7 6 7 9 9 9 8 8 6 3 1 0 3 4 5 6 7 8 10 9 9 8 7 6 5 5 4 3 3 2 2 2 2 2 2 1 1 2 3 2 2 2 2 3 3 4 5 6 6 6 6 6 5 5 4 4 3 3 3 3 4 4
3 3 2 1 1 0 1 1 2 3 4 5 5 5 6 6 7 8 9 9 9 9 9 9 9 9 9 9 8 7 7 4 1 1 1 3 4 6 5 5 5 7 9 10 10 7 7 7 6 6 5 4 3 3 2 2 2 3 3 3 3 3 2 1 1 2 3 3 3 4 5 5 6 6 6 6 6 6 5 4 4 4 3 3 4
4 3 3 3 2 1 1 2 3 5 5 5 5 6 6 6 7 8 10 10 10 10 10 11 11 10 9 8 6 6 6 2 1 1 1 3 4 6 5 4 4 4 6 9 10 8 8 8 8 8 7 5 5 5 4 3 3 3 2 2 3 2 2 2 1 1 3 4 4 5 5 5 6 7 7 7 7 7 6 5 5 4 4 4 5
5 4 3 3 3 2 1 2 4 5 6 6 6 6 6 6 8 9 11 11 12 11 12 12 10 9 8 8 6 5 4 1 2 2 2 2 2 4 5 5 4 3 4 6 8 8 8 8 8 8 8 7 7 6 5 5 4 4 3 3 3 4 3 2 2 2 2 4 5 5 6 6 7 7 7 7 7 7 7 7 6 5 5 5 5
5 5 4 4 4 3 2 2 4 5 6 6 7 7 7 8 9 10 11 12 12 12 12 10 9 8 8 7 7 5 2 2 2 2 3 2 2 2 3 4 3 3 3 4 6 7 7 7 7 7 8 8 8 8 7 6 6 5 5 5 5 5 4 4 4 3 3 2 3 4 5 6 7 7 7 6 7 7 7 7 6 6 6 6 5
5 5 4 4 4 4 3 3 4 5 6 6 7 7 8 9 10 10 10 10 11 11 11 9 8 7 6 6 7 5 2 2 2 2 3 2 2 2 2 2 2 2 2 3 4 5 6 7 7 8 9 9 9 9 8 7 6 6 7 7 6 5 5 6 6 5 3 2 3 3 4 5 6 7 7 6 6 6 7 7 6 6 6 6 6
5 4 4 4 4 4 3 3 4 5 6 7 8 8 9 10 10 9 9 9 9 9 10 9 8 6 5 5 6 4 2 2 1 2 3 2 2 3 3 3 2 2 2 3 3 3 5 6 8 8 9 10 9 9 9 8 7 7 7 8 7 6 6 6 7 7 6 5 4 3 4 4 6 7 6 6 6 6 6 7 6 6 7 6 6
5 4 4 4 4 4 4 3 4 5 6 8 8 8 9 8 8 8 8 7 7 8 8 8 7 6 5 5 5 4 1 1 0 2 4 3 3 3 4 4 3 3 3 3 3 2 3 5 6 8 8 8 9 9 9 8 8 8 7 8 7 7 8 8 8 8 7 7 6 5 6 7 6 7 5 4 5 5 6 6 6 7 7 7 7
6 5 5 4 4 4 4 4 4 5 7 8 8 7 7 6 6 6 6 6 6 7 7 7 6 6 5 4 4 3 1 0 1 3 5 4 4 5 4 4 4 4 4 4 4 3 2 3 4 5 5 5 7 9 9 8 8 8 8 8 7 8 9 9 9 8 8 9 7 7 8 8 7 7 6 6 7 8 7 6 6 7 8 8 8
6 5 5 5 4 4 4 4 4 6 6 6 6 5 4 3 3 4 4 5 5 6 6 6 6 6 5 4 4 3 1 1 2 3 3 4 5 6 6 5 5 5 5 5 5 4 3 3 3 2 2 3 6 8 9 9 8 8 7 7 7 7 8 9 10 9 9 10 8 9 9 8 8 8 9 10 8 9 9 7 7 8 9 10 10
7 6 6 5 5 4 4 4 5 5 5 4 4 3 2 2 4 5 5 5 6 6 7 6 6 5 5 5 5 4 2 1 1 1 2 4 5 6 6 7 6 6 6 6 6 5 5 4 3 2 2 3 4 5 7 9 8 8 7 7 7 7 7 8 10 9 10 10 9 10 9 10 10 10 12 12 8 8 10 10 10 10 9 12 13
8 7 7 6 5 4 4 4 5 5 4 3 1 0 2 4 6 5 6 6 7 7 8 8 7 6 6 6 5 4 3 2 2 2 1 3 4 5 5 6 7 7 7 7 7 7 7 6 4 4 4 5 5 4 5 6 7 7 8 8 8 8 8 8 9 9 9 10 10 12 12 13 13 14 15 13 9 11 12 11 13 13 11 13 16
9 8 7 6 5 5 4 5 6 4 3 2 2 2 4 5 5 5 6 7 8 9 10 9 9 8 7 6 5 4 4 4 4 4 2 1 3 4 4 5 6 6 6 7 8 9 9 8 6 6 6 6 6 4 3 4 4 5 6 8 8 8 9 9 9 10 9 10 11 12 13 14 15 16 15 12 12 13 12 12 14 15 14 16 18
9 8 7 7 6 5 5 6 5 4 4 4 4 4 5 5 5 6 7 8 10 11 11 10 9 8 8 7 6 6 5 5 4 4 3 1 2 4 4 4 5 6 6 7 7 8 10 10 10 9 8 7 7 5 4 4 5 4 5 6 7 7 8 9 9 9 10 11 12 12 13 14 15 16 14 12 12 13 13 13 14 14 15 16 17
10 9 8 8 7 7 6 6 6 6 6 6 6 5 5 6 6 6 7 9 10 11 11 10 9 8 7 7 7 6 6 5 4 4 3 2 1 3 4 4 5 7 8 8 8 7 8 10 11 12 10 9 8 7 6 6 6 6 6 7 7 7 8 8 8 8 9 11 11 12 13 13 15 16 14 12 13 14 14 14 13 13 14 15 16
11 10 9 9 8 7 7 7 8 8 7 7 6 5 5 5 6 6 8 9 10 10 11 10 9 8 7 7 7 7 7 6 6 6 4 3 2 2 3 4 4 7 8 8 8 8 7 8 10 12 12 11 9 8 8 8 9 9 9 9 9 10 11 11 11 10 11 11 11 12 13 13 14 15 15 13 14 14 15 15 15 15 15 15 15
12 10 10 10 9 8 8 9 10 9 9 8 6 5 4 5 6 6 8 9 10 11 11 11 10 9 8 8 7 7 7 6 6 6 5 4 3 1 2 2 3 5 6 6 6 7 7 6 8 10 11 12 11 11 11 11 12 12 13 12 13 13 14 14 14 15 15 14 14 14 14 15 15 16 16 16 17 17 18 18 19 18 18 18 17
11 10 11 11 10 9 10 11 11 11 10 8 6 5 5 5 5 6 8 9 11 13 13 12 12 11 10 9 8 7 7 7 6 5 5 4 3 2 1 1 2 3 3 3 4 5 5 5 5 6 7 9 10 10 10 11 12 12 13 13 13 13 13 13 13 14 14 14 15 15 15 15 16 17 17 18 18 18 18 18 18 19 19 19 19
12 11 12 11 10 10 11 13 13 13 11 9 7 5 5 5 5 7 8 9 12 13 13 13 13 13 12 11 9 7 7 8 7 5 5 4 4 3 1 0 2 4 3 2 3 4 4 2 1 1 2 4 5 6 7 8 8 9 9 10 10 10 10 11 11 12 12 13 13 13 14 14 15 15 16 16 17 17 18 18 18 18 18 18 18
13 13 13 12 11 11 13 15 15 14 12 10 8 6 6 6 6 6 7 9 11 12 12 13 14 15 14 13 11 9 8 8 8 7 5 3 3 3 1 1 2 4 4 3 3 3 4 3 3 2 1 2 2 3 4 5 5 6 6 6 7 7 8 9 10 10 11 12 12 12 13 13 14 14 14 15 15 16 17 18 18 19 19 19 19
14 14 14 13 12 13 15 16 16 15 14 11 9 8 7 6 5 5 6 7 9 10 11 12 13 14 15 15 14 13 11 9 8 7 7 5 3 2 1 2 3 4 4 4 3 3 4 4 5 5 4 3 4 4 4 4 4 4 5 5 5 5 6 6 7 8 9 9 10 11 12 12 13 14 14 14 14 14 15 16 17 18 18 19 19
14 14 14 14 14 14 17 18 17 16 15 13 11 9 8 7 5 4 4 5 7 8 10 11 12 13 14 15 15 15 14 12 10 8 7 6 5 4 2 2 3 5 5 5 4 4 5 6 6 7 6 6 5 5 4 4 4 3 3 3 3 3 4 4 5 5 6 8 9 10 11 13 13 14 15 15 15 15 15 15 16 17 17 17 18
14 15 15 15 15 16 17 19 19 17 16 14 13 11 10 7 4 3 3 3 5 7 8 10 11 12 13 13 14 14 14 13 12 10 8 7 5 4 3 3 4 5 6 6 5 5 6 6 7 7 7 8 7 7 6 5 5 4 3 3 4 4 5 5 6 7 8 10 11 12 14 15 16 17 17 17 17 17 16 16 16 17 17 17 17
15 15 15 15 16 17 18 20 20 18 17 16 15 13 11 9 6 3 1 1 2 5 7 8 9 10 11 12 12 12 13 13 12 11 10 8 7 5 5 4 4 5 6 7 7 6 7 7 7 7 7 8 9 8 8 7 6 6 6 6 7 7 8 8 9 10 11 12 13 14 15 16 16 17 17 18 18 18 18 18 18 18 18 18 18
16 15 15 15 17 18 19 21 21 20 19 18 16 15 14 12 9 7 5 3 2 3 4 6 8 9 10 11 12 11 11 11 11 11 10 10 9 8 7 6 5 5 6 7 7 8 8 8 7 6 7 8 9 9 9 8 7 7 8 8 9 9 10 11 11 12 13 13 14 14 15 15 16 16 16 17 17 18 18 18 18 18 18 18 19
17 16 16 17 18 19 20 21 22 22 21 19 18 17 16 14 13 11 9 7 5 4 4 5 6 7 9 10 11 11 12 11 11 10 10 10 10 10 9 8 7 6 6 6 7 7 8 9 8 7 7 8 8 9 9 9 9 9 8 9 10 10 11 12 12 13 13 14 14 15 15 15 16 16 16 16 16 16 16 16 16 16 16 16 16
17 18 19 19 20 20 22 23 24 23 22 21 20 18 17 16 15 14 13 11 9 7 6 6 6 6 7 9 10 11 12 12 12 12 11 11 11 11 10 10 9 8 8 7 7 7 8 9 9 9 8 8 8 9 9 10 10 10 9 9 10 11 12 12 13 14 14 15 15 16 16 15 16 16 16 17 16 16 16 15 15 15 15 15 15
17 20 21 22 22 22 24 25 26 25 24 23 22 20 18 17 16 16 16 14 13 11 10 9 8 7 7 8 10 11 12 13 13 13 13 12 12 11 11 11 11 11 10 9 9 9 9 10 10 10 9 9 9 9 10 11 11 11 10 10 11 13 13 14 14 14 15 16 17 17 17 17 17 16 17 17 17 16 16 16 16 15 15 16 16
18 21 23 24 24 24 26 27 27 27 27 25 23 22 20 18 18 17 17 17 16 15 13 12 11 10 10 10 10 11 12 13 13 14 14 14 13 12 12 12 12 12 12 11 11 11 11 12 12 11 11 10 10 11 12 12 12 12 12 12 13 14 15 15 15 16 17 18 20 20 20 20 19 19 18 18 18 17 17 16 16 16 16 16 16
19 21 24 26 26 26 27 28 29 29 28 27 25 23 21 19 18 18 18 18 17 16 16 15 14 13 12 11 12 12 13 13 14 14 14 14 14 14 13 12 12 13 13 13 13 13 13 14 14 14 13 12 12 13 14 13 14 14 14 14 14 15 16 17 17 18 20 21 22 23 23 22 22 22 21 21 20 19 18 17 17 16 16 16 16
20 21 25 27 28 27 29 30 30 30 30 28 26 25 22 21 19 19 19 18 17 17 17 17 16 15 14 14 14 14 14 14 14 14 15 15 15 15 15 14 14 14 14 14 14 14 15 16 17 16 16 15 15 15 16 16 16 17 17 17 17 17 18 18 19 19 20 21 22 23 23 23 23 23 23 23 23 22 20 19 18 17 16 16 16
22 22 25 28 28 28 29 30 31 31 31 29 28 26 24 22 20 20 20 19 18 18 18 18 18 18 17 16 15 16 16 16 15 16 16 16 16 16 16 16 16 15 15 15 15 15 16 17 18 18 18 18 17 17 17 18 18 19 19 20 19 20 20 20 19 20 20 21 22 23 23 23 23 23 24 24 24 24 23 22 21 20 19 18 17
24 24 26 28 29 29 30 31 32 32 31 30 29 27 25 23 22 21 21 20 19 19 19 19 19 19 19 18 17 17 18 18 17 17 17 17 18 17 17 17 17 17 17 17 16 16 16 17 18 19 19 20 20 19 20 20 20 21 21 22 22 21 21 21 21 21 21 22 23 23 24 24 25 25 25 26 25 25 24 23 23 23 22 21 20
26 25 26 29 30 30 30 31 32 33 32 31 30 28 26 24 23 22 22 21 20 20 20 20 20 20 20 20 19 19 19 20 19 19 19 19 19 19 19 18 18 17 18 18 18 18 17 18 18 19 20 21 21 22 22 22 23 23 23 23 23 23 22 22 22 21 22 23 24 24 25 26 26 27 28 28 27 26 25 25 24 24 24 24 24
27 27 28 30 32 31 31 32 33 33 33 33 31 29 27 25 24 23 22 22 21 21 21 21 21 21 21 21 21 21 21 21 21 21 21 21 21 21 20 20 19 19 19 20 20 20 19 19 19 20 21 21 21 22 23 24 24 24 24 24 24 24 23 23 23 23 23 24 25 25 26 27 27 28 28 29 28 28 27 26 26 26 26 26 26
28 28 29 31 33 33 32 32 34 34 34 34 32 30 28 27 25 23 23 22 22 22 22 22 22 22 22 22 22 22 22 23 23 23 23 23 23 22 22 22 21 20 20 21 21 22 21 21 20 20 21 21 22 22 23 24 25 24 25 25 25 25 24 25 25 25 25 26 27 27 27 27 28 28 29 28 28 28 28 28 28 28 28 28 29
29 29 31 33 33 33 33 33 34 34 34 34 33 32 30 28 26 25 24 24 23 23 23 23 23 23 24 24 23 24 24 24 24 24 25 25 25 25 24 24 24 23 23 23 23 23 23 22 22 21 21 22 23 23 23 23 24 25 25 26 27 27 27 27 27 27 28 29 29 29 29 29 29 30 29 29 29 29 29 29 29 30 31 31 32
30 31 32 34 34 33 33 33 34 35 35 34 34 33 32 30 29 27 26 25 25 24 24 24 25 25 25 25 25 25 25 25 25 25 26 26 26 26 26 26 25 26 25 25 24 25 25 24 23 23 23 24 25 25 24 24 24 24 26 27 29 30 30 29 30 30 31 32 32 31 31 31 32 32 31 31 31 30 31 31 32 32 33 33 34
32 33 34 35 35 34 34 34 35 36 36 36 36 35 34 33 31 30 29 27 26 25 25 25 26 26 26 26 27 27 26 25 25 26 26 26 25 25 26 26 26 27 27 26 26 26 26 26 25 24 25 26 27 26 26 26 25 25 26 28 30 32 32 32 32 33 34 34 35 34 33 33 34 34 34 33 32 33 33 33 33 33 33 34 34
32 34 35 36 35 35 35 35 36 37 38 38 37 36 35 34 34 33 31 29 27 26 26 27 27 27 27 27 28 27 26 25 25 26 25 24 24 24 25 25 25 26 27 27 28 28 28 27 26 26 26 27 28 28 28 28 27 27 27 27 28 30 32 33 35 36 37 37 37 37 36 35 35 34 33 33 33 34 36 36 35 35 35 35 35
32 34 35 36 37 36 37 37 37 38 39 39 38 37 37 36 35 34 32 30 29 28 28 29 29 28 28 29 29 27 25 24 25 25 24 23 24 25 26 26 26 26 26 27 28 29 29 28 27 27 28 29 29 30 31 30 29 29 28 27 27 29 32 34 35 37 39 38 38 37 35 33 33 32 32 33 34 36 36 36 36 35 35 35 35
31 32 34 36 37 38 38 38 39 39 39 39 38 38 37 37 36 35 33 32 31 30 30 31 31 30 29 30 30 27 24 22 22 23 23 23 25 26 27 28 29 29 28 28 29 29 29 29 28 28 29 30 31 31 31 31 30 30 29 28 30 32 33 33 33 35 37 36 34 34 32 31 32 33 33 34 35 37 37 36 35 35 34 34 34
30 31 33 36 38 39 40 40 40 40 39 38 38 38 38 38 37 36 35 33 32 32 33 33 32 31 31 31 30 28 24 20 19 22 24 25 26 27 27 28 30 30 30 29 29 29 30 29 28 29 30 31 31 32 32 32 32 31 30 31 34 34 32 31 30 31 32 32 32 31 30 29 30 33 34 35 36 36 36 35 34 35 35 34 35
30 31 33 35 38 39 40 40 41 42 40 39 39 40 39 39 38 37 37 35 35 35 35 35 34 33 32 33 31 28 25 21 20 23 26 26 26 26 27 28 29 29 29 28 28 28 29 30 30 30 30 31 32 33 33 33 33 33 33 34 34 32 30 27 26 28 29 30 30 31 31 30 32 34 35 35 35 34 33 33 33 34 35 36 36
31 32 33 34 37 39 40 41 42 43 42 40 40 41 41 40 39 39 39 37 37 38 38 37 35 34 34 34 31 29 27 24 23 24 25 26 26 26 27 29 28 27 27 27 26 26 27 29 30 31 31 32 33 33 34 34 33 33 33 34 32 29 26 25 25 26 28 29 31 33 34 34 34 35 34 32 31 31 30 31 32 33 34 35 36
33 34 34 34 36 38 40 42 43 44 43 42 42 43 42 41 41 41 40 39 39 40 40 39 37 36 35 34 32 30 29 27 26 25 25 26 26 25 26 27 27 26 26 27 26 25 26 28 29 30 32 33 33 34 34 33 33 32 33 31 28 25 24 24 25 27 29 30 32 35 36 35 34 34 33 31 30 30 30 31 32 32 33 34 35
36 35 35 35 36 38 40 41 43 44 44 44 44 44 44 43 42 42 42 41 42 42 41 41 40 37 36 34 33 32 31 30 28 26 26 27 27 25 25 26 27 26 26 27 27 27 28 29 29 30 31 32 33 33 32 32 31 31 31 28 25 24 24 25 26 28 30 31 33 36 36 35 34 34 33 32 31 30 30 31 31 32 33 33 33
37 37 37 37 37 38 39 41 42 43 45 46 46 45 45 44 43 44 43 42 43 43 43 42 42 39 36 35 34 34 33 30 28 27 27 27 25 25 26 26 27 27 27 27 28 29 30 30 30 31 30 30 31 31 31 30 30 29 27 24 23 24 25 26 27 29 31 33 35 36 36 34 33 33 33 32 31 30 29 30 31 31 32 32 33
39 38 39 39 38 39 40 41 43 44 45 47 47 47 47 46 45 45 44 43 43 44 43 44 43 41 37 35 35 35 33 30 27 27 28 26 24 24 26 27 27 27 27 26 27 28 30 31 31 31 30 29 29 29 28 28 28 26 23 22 23 24 26 28 29 30 32 34 36 36 35 33 32 33 33 33 31 29 28 29 29 30 30 31 32
39 39 39 40 40 40 41 41 42 43 45 47 48 48 48 47 46 46 44 43 43 43 44 45 45 42 38 36 36 36 34 30 28 29 28 25 24 24 26 27 28 27 26 25 26 28 29 30 29 29 28 27 27 26 26 27 26 23 22 23 24 26 27 29 31 32 34 35 36 35 34 32 32 32 33 33 30 27 26 27 28 29 30 30 31
38 39 40 40 40 41 42 42 43 44 46 47 48 49 49 48 47 46 45 44 44 43 44 47 47 43 39 37 37 37 35 32 30 30 28 24 24 25 26 27 27 26 26 26 26 28 29 29 28 27 26 25 25 25 25 25 23 22 22 24 25 27 29 30 32 34 34 35 34 33 32 31 31 31 31 31 30 26 24 25 27 28 29 30 31
Wind_Direction
188 185 174 168 148 71 33 22 356 341 338 339 341 343 346 344 340 336 333 334 335 333 328 324 321 311 304 310 320 327 335 335 333 331 188 152 161 170 180 193 207 219 222 220 220 217 214 211 206 212 214 208 189 160 153 143 160 193 208 271 318 331 259 228 238 221 205 208 215 219 219 218 221 225 236 249 257 264 270 271 260 242 236 232 219
203 205 197 203 210 305 341 332 324 331 336 334 335 338 340 336 331 328 327 328 327 325 323 320 314 307 304 309 318 327 329 327 318 297 130 131 139 139 149 171 190 209 218 221 222 224 228 225 218 219 225 227 226 222 212 180 173 194 204 247 300 345 349 263 249 234 218 221 219 215 215 221 231 236 245 256 262 268 267 260 254 244 237 229 224
221 216 216 231 239 271 313 316 322 330 332 326 320 322 323 322 324 324 324 324 323 322 319 317 315 311 302 302 313 324 319 306 181 252 181 131 132 126 127 140 153 181 205 219 226 230 233 234 230 228 231 231 235 242 240 231 227 222 211 227 259 295 336 343 324 260 222 219 219 217 215 223 240 245 253 263 269 273 274 266 254 249 245 233 229
230 228 231 242 255 267 286 313 324 329 327 317 308 304 308 314 318 320 321 322 322 321 318 318 318 312 303 301 312 327 312 226 162 245 223 155 134 122 122 126 132 160 188 211 225 233 234 234 234 235 239 236 237 244 245 243 243 245 236 220 235 256 270 291 328 322 267 235 231 228 222 226 239 249 258 271 278 280 279 271 260 257 254 245 240
234 235 236 244 260 266 276 308 324 327 322 314 304 300 306 313 315 317 319 321 322 320 319 320 316 311 311 314 323 337 312 188 151 236 234 187 151 119 122 128 135 161 194 214 225 238 245 244 239 237 240 237 234 235 237 243 247 252 249 236 235 249 256 262 271 285 296 278 261 254 242 238 245 253 261 265 268 273 275 270 261 260 261 258 254
234 236 237 240 255 262 280 312 324 324 320 314 304 302 309 312 314 317 319 322 323 318 317 318 311 311 318 321 328 338 309 198 168 224 244 192 165 143 151 165 163 177 214 230 232 242 251 254 249 242 244 241 231 230 234 241 244 247 250 246 238 241 252 258 259 259 262 265 273 271 261 260 257 251 250 254 255 258 267 267 261 260 261 262 263
232 233 235 236 246 262 285 310 318 319 318 311 302 302 306 308 314 318 322 325 319 311 312 313 310 314 321 323 333 339 299 244 198 240 273 235 190 182 194 210 206 211 233 248 248 247 255 257 251 247 248 246 237 235 239 244 248 250 254 257 249 242 246 253 256 255 248 244 244 240 247 260 261 248 236 240 245 247 257 262 265 266 270 272 275
229 229 230 231 241 262 283 297 307 313 312 305 299 301 303 310 318 320 325 326 313 310 315 315 315 328 331 332 346 346 313 290 298 271 271 255 227 213 210 213 215 228 245 262 266 259 266 268 259 252 251 253 247 244 245 247 255 259 260 261 257 250 248 248 252 252 248 244 237 230 231 230 243 251 250 259 263 263 263 268 280 286 290 291 288
227 226 227 229 240 257 276 290 306 313 308 299 295 297 302 313 322 324 331 328 320 325 327 326 331 341 340 346 7 355 332 282 267 262 263 262 250 239 230 224 222 232 243 256 270 274 275 273 269 262 254 250 248 245 246 250 254 259 260 258 258 258 252 246 247 251 249 246 239 235 237 228 233 246 251 259 264 270 270 276 293 295 292 289 284
224 223 226 227 235 253 272 293 311 311 303 294 290 294 301 317 343 348 352 345 344 350 350 353 351 346 344 5 28 15 15 196 260 268 274 273 258 250 248 245 235 233 240 247 258 269 275 273 273 272 238 231 247 246 243 247 249 253 259 259 260 266 259 244 244 249 252 254 247 239 239 235 238 245 248 248 251 268 276 276 277 278 282 282 278
221 217 220 221 228 248 271 296 306 302 293 283 281 287 308 25 37 18 14 13 7 8 11 17 12 2 2 14 30 37 59 139 242 239 256 264 259 254 253 255 251 246 250 252 254 259 266 269 265 255 226 221 251 254 243 243 246 251 256 254 255 263 260 246 246 251 255 260 258 252 251 250 250 253 256 258 264 276 276 271 264 261 267 276 279
219 211 211 216 226 248 272 292 294 287 275 256 241 40 48 51 44 26 22 23 19 21 24 28 28 28 28 29 35 46 72 100 124 134 201 261 267 266 262 263 262 259 260 260 260 259 260 261 252 243 234 230 239 247 251 250 247 252 257 253 252 258 262 256 252 253 257 261 261 259 257 257 258 259 262 268 276 274 270 266 263 259 251 253 264
220 213 211 216 227 247 265 281 280 262 238 198 141 91 65 56 49 33 27 26 27 30 31 33 37 45 54 56 54 58 77 89 103 122 155 258 276 287 294 289 283 279 277 273 268 261 256 252 246 243 237 237 246 244 250 257 248 246 254 257 259 262 265 263 258 257 259 261 262 262 260 260 262 263 267 272 274 272 271 267 263 261 256 249 251
223 219 216 218 226 238 254 266 255 219 187 153 124 100 77 63 54 43 37 35 34 32 29 30 36 48 61 69 72 73 79 84 93 114 136 187 305 317 324 320 309 304 300 295 285 269 257 249 245 246 244 242 250 248 242 250 252 243 243 253 260 264 266 266 266 266 265 263 262 263 263 264 265 268 271 273 275 275 274 272 267 264 264 260 255
223 221 218 218 222 231 247 245 216 187 166 145 126 106 84 68 60 52 48 44 40 35 29 26 29 38 51 62 68 69 71 73 74 89 111 117 33 335 338 340 320 307 301 298 298 290 271 256 246 245 246 242 244 247 251 255 258 254 246 245 248 252 258 262 268 271 271 269 266 264 264 266 269 273 276 277 277 276 273 273 273 270 269 268 264
221 218 215 215 217 228 235 216 189 174 162 148 133 111 85 71 68 62 58 54 47 43 37 30 29 35 45 51 55 57 57 57 58 63 74 84 69 351 348 355 315 295 292 291 296 297 287 268 251 244 244 243 240 242 249 256 262 264 261 259 260 261 261 263 266 268 269 270 269 267 269 270 272 274 277 277 275 275 276 279 279 279 277 273 269
219 214 211 211 213 221 216 195 178 169 162 153 141 116 94 82 77 72 68 62 55 52 47 42 38 40 46 49 52 54 54 54 55 57 60 69 74 23 360 1 303 286 283 284 293 295 288 271 253 246 245 246 246 245 249 258 265 269 271 272 272 271 269 268 269 270 271 272 270 269 270 271 271 273 276 277 277 277 278 280 281 280 278 275 272
218 210 207 207 209 213 202 186 175 169 166 160 147 124 109 98 89 85 80 71 64 59 53 50 49 47 49 50 50 51 51 52 55 56 56 58 71 72 56 38 298 283 271 277 295 300 296 279 258 251 250 251 255 257 259 262 266 269 273 276 278 277 276 277 278 278 278 278 278 277 277 276 276 277 278 279 279 278 277 277 277 276 275 274 272
216 209 204 204 207 207 195 183 175 171 171 166 152 137 125 112 100 95 87 76 69 63 57 54 53 52 51 51 49 46 43 43 46 50 50 46 54 67 77 81 299 294 294 314 320 318 326 331 304 265 263 264 268 273 275 274 274 274 275 277 280 282 285 288 291 292 292 290 290 289 287 286 283 281 281 280 280 280 280 278 276 275 274 273 272
213 207 203 203 206 204 192 182 177 175 176 169 158 150 137 121 106 97 88 78 69 62 58 56 55 53 53 53 52 50 44 39 37 38 42 38 40 52 44 326 308 304 311 334 347 344 357 11 19 23 359 322 307 305 300 292 288 284 281 279 279 282 286 288 291 293 294 295 295 294 293 291 289 288 286 284 283 282 281 280 278 276 275 273 271
211 207 204 203 204 201 190 184 181 180 180 175 168 164 152 135 113 95 85 77 66 58 56 53 52 51 52 54 54 53 51 45 38 33 34 33 25 32 17 303 301 302 311 332 347 348 353 358 355 355 358 355 346 336 328 315 304 295 288 283 278 278 278 280 283 287 291 294 296 297 297 297 297 296 296 294 291 288 285 283 281 279 276 275 273
214 210 207 204 203 198 191 188 186 185 184 182 180 179 170 155 128 95 78 64 53 49 48 46 47 46 47 51 52 52 52 49 46 38 32 30 21 12 356 315 309 311 316 326 335 336 340 343 344 344 344 344 341 334 328 322 315 308 298 293 290 290 290 291 294 297 300 303 304 306 305 306 306 305 304 302 300 297 293 289 287 285 283 280 278
221 213 210 206 203 198 193 192 191 189 189 190 191 194 189 178 163 128 88 54 31 28 30 33 38 40 40 42 45 48 50 49 47 43 36 31 25 13 356 336 324 319 321 325 325 325 327 329 331 331 328 328 331 330 328 327 327 326 322 320 320 321 322 321 321 321 322 320 319 317 315 313 312 310 308 307 304 302 299 296 293 291 290 288 286
230 219 212 208 205 201 196 195 195 194 194 197 200 204 204 199 197 195 169 64 7 6 10 13 20 29 31 32 35 40 45 48 46 43 37 32 27 17 2 352 338 324 322 325 325 321 318 317 316 315 312 314 319 323 324 325 325 328 330 331 330 328 329 330 330 329 326 324 320 316 314 311 309 309 308 307 306 304 303 301 299 296 295 294 292
239 228 218 212 207 204 201 198 198 198 200 203 206 210 212 213 216 223 230 236 284 336 348 353 359 9 14 19 24 26 30 36 40 38 34 30 26 17 5 356 347 332 323 320 319 315 311 309 307 302 297 301 307 311 313 314 314 318 324 326 327 328 331 333 332 328 324 319 316 314 312 309 308 306 306 305 305 305 303 301 300 299 299 299 299
239 231 223 216 209 206 204 200 200 202 204 207 210 213 216 220 225 232 239 244 255 283 309 324 338 349 354 360 6 10 12 15 21 25 26 24 22 17 9 359 349 338 328 322 315 308 303 302 301 297 289 287 293 297 300 302 304 309 317 321 323 329 333 332 328 325 323 322 321 319 317 314 311 307 304 302 301 301 300 298 296 296 295 295 296
237 230 223 217 211 208 206 203 201 204 206 210 213 215 217 222 227 234 241 247 254 265 280 293 306 322 334 339 345 353 357 358 2 6 10 14 14 11 7 1 352 341 331 325 316 303 297 295 296 293 285 279 280 284 288 291 295 303 312 317 323 328 329 329 327 328 329 330 328 325 321 317 313 309 305 302 299 297 295 293 291 290 288 286 283
236 229 222 217 213 210 208 205 203 205 208 211 214 216 219 223 228 234 240 246 252 259 268 277 288 301 312 321 329 335 341 345 349 351 354 357 1 2 0 357 352 344 335 329 320 310 301 295 292 288 283 278 276 278 282 286 291 298 305 310 316 321 322 323 324 326 327 327 326 324 320 316 313 313 312 308 304 299 295 291 288 286 284 283 281
237 230 223 218 214 211 209 206 206 207 209 212 214 217 219 223 228 235 240 245 250 256 263 271 279 289 299 307 314 320 326 330 335 340 342 344 346 349 350 350 347 342 337 331 323 315 307 300 294 289 283 278 275 276 279 283 288 292 295 300 307 312 316 317 317 318 320 320 320 320 319 318 317 316 317 316 314 308 302 297 292 288 286 284 283
240 233 227 220 216 214 210 208 209 210 211 213 215 217 220 223 229 235 240 244 249 254 260 267 273 279 287 295 301 307 312 316 322 327 329 332 334 336 337 339 340 339 336 332 327 318 308 303 299 295 291 286 282 280 282 284 287 289 290 294 301 308 312 314 315 316 317 317 318 318 318 319 319 318 318 318 318 315 310 304 299 295 291 288 285
241 235 230 224 220 217 213 209 211 214 214 215 216 218 220 223 228 235 240 244 248 252 257 263 269 274 279 285 291 296 300 304 310 314 316 319 322 325 327 327 329 331 331 330 328 320 310 306 303 300 300 298 293 289 287 287 287 288 290 293 298 306 311 314 315 314 315 316 318 319 319 319 319 318 317 317 317 317 315 311 306 301 297 293 289
242 236 232 228 223 220 216 212 213 216 217 217 217 218 220 223 228 234 240 244 247 250 255 259 264 270 275 280 284 288 292 295 299 302 305 308 311 314 318 318 318 320 322 324 326 322 315 310 306 304 304 303 299 296 293 291 289 288 290 294 299 305 310 311 311 310 312 315 318 320 319 318 317 316 315 314 315 316 316 315 312 308 305 300 297
241 236 232 229 226 222 219 214 215 219 220 220 220 220 221 223 228 234 240 245 249 251 255 259 263 267 271 275 278 281 285 288 291 293 296 298 301 304 308 310 310 309 311 315 318 318 316 313 310 308 307 306 303 301 297 294 291 290 292 295 299 303 306 307 307 308 312 315 317 318 318 317 316 316 315 314 313 312 312 313 312 310 308 305 302
240 236 232 229 227 224 221 217 217 221 223 223 222 222 222 224 227 233 240 246 250 253 256 259 261 263 266 269 272 275 279 282 285 286 287 289 292 294 298 301 303 302 301 304 308 310 311 311 312 312 310 309 306 302 299 296 293 293 294 295 297 299 301 302 303 305 309 312 313 314 315 315 316 315 314 313 312 310 309 308 308 307 306 305 304
238 235 231 229 228 226 223 220 219 222 224 224 224 225 225 226 228 232 239 246 251 255 258 260 261 263 264 266 268 270 274 277 279 280 280 281 284 287 289 291 294 295 294 295 297 301 303 306 310 309 309 311 310 302 297 294 294 294 293 293 293 295 296 297 298 300 303 305 307 309 311 313 314 314 313 312 311 309 308 307 306 305 305 303 303
235 233 230 228 228 228 226 222 221 222 224 225 227 227 228 229 230 234 239 245 251 255 259 262 264 265 267 267 268 269 271 275 277 277 277 277 278 280 281 282 285 288 288 288 290 292 296 301 304 305 305 308 309 305 298 293 292 292 292 291 290 290 291 292 293 295 297 299 302 305 308 311 313 313 311 310 309 308 308 307 307 307 305 304 303
233 231 229 228 228 229 228 225 222 223 224 226 228 230 231 233 234 236 240 244 249 254 258 263 265 268 270 270 270 271 273 276 278 278 277 275 275 275 277 277 279 280 281 281 283 285 288 293 298 300 301 303 305 306 304 298 293 291 291 291 289 287 287 288 291 293 294 295 298 302 305 308 311 312 311 310 308 307 307 308 308 307 306 306 305
232 230 228 227 228 229 229 227 224 224 225 226 229 231 233 235 236 238 241 244 248 252 257 262 265 268 269 270 271 273 276 280 282 281 279 278 277 277 276 276 275 276 276 277 278 279 281 286 291 295 298 298 299 302 304 303 299 296 293 292 290 288 288 289 290 292 292 293 295 298 301 304 308 309 309 308 307 307 307 308 308 307 306 305 303
231 230 228 228 228 229 229 227 225 225 226 227 229 232 234 236 238 240 242 244 247 252 256 261 264 266 268 270 272 275 280 285 286 285 284 284 284 283 280 276 274 274 274 274 274 275 276 279 284 289 292 293 294 297 299 300 302 302 299 297 294 291 290 290 289 288 288 290 292 294 296 301 304 305 304 305 306 307 308 308 307 306 305 303 301
231 230 229 228 228 229 229 228 225 225 226 227 229 232 234 235 238 240 242 245 248 252 256 259 262 265 268 270 273 278 285 288 288 288 289 289 289 288 284 279 277 276 274 273 273 273 275 276 278 282 285 288 291 293 294 296 299 303 302 300 297 293 290 287 286 285 285 287 290 291 292 296 299 300 300 303 306 307 307 308 307 306 304 302 300
233 231 229 229 229 229 229 228 226 225 226 228 229 231 234 236 238 240 242 246 249 251 255 258 261 264 267 270 273 279 286 289 291 293 292 288 287 287 285 280 279 279 278 275 273 273 275 274 274 276 279 283 286 288 290 293 297 302 303 301 300 298 292 285 282 283 285 288 291 292 293 297 299 299 302 305 306 306 306 306 306 305 303 301 299
236 233 231 230 230 230 230 229 228 227 227 229 230 231 234 236 239 241 243 245 248 250 253 256 260 263 266 269 272 276 280 286 295 299 296 291 286 284 283 281 281 281 281 280 277 275 276 274 272 273 275 278 282 285 288 291 294 299 301 301 303 302 295 288 283 284 287 293 296 295 297 302 303 303 305 305 305 305 304 305 304 302 300 298 296
239 237 233 231 231 230 231 230 230 230 230 231 231 232 234 236 239 241 244 245 247 250 252 255 259 262 264 267 269 272 274 280 290 293 294 293 288 282 281 282 282 281 282 284 282 278 276 274 271 270 272 275 279 283 286 288 292 295 296 299 304 303 296 291 288 288 293 298 301 300 301 303 303 303 304 305 304 304 304 304 302 299 297 295 294
242 240 236 234 232 232 233 232 232 232 232 232 233 234 235 236 239 241 244 245 247 249 251 253 256 259 262 264 267 271 273 274 278 281 285 290 288 283 279 280 282 281 282 286 287 280 275 272 269 269 271 274 276 280 283 287 292 294 295 299 303 301 296 294 294 295 298 301 302 302 303 304 303 303 304 303 302 302 303 302 299 297 295 294 294
244 242 240 237 235 234 234 234 234 234 233 233 234 236 236 236 238 241 243 245 247 250 251 253 254 257 259 262 266 269 270 271 273 276 281 285 285 283 280 280 283 284 283 285 287 284 279 273 270 270 271 273 276 279 283 288 292 294 297 302 302 297 294 294 296 298 299 301 303 303 304 305 305 304 304 304 303 304 304 303 300 298 297 296 295
244 243 241 240 237 235 235 236 235 235 235 234 235 236 237 236 238 240 243 245 247 249 251 252 253 254 257 261 265 267 267 270 274 276 279 280 280 281 282 282 285 287 285 282 282 285 283 277 274 273 272 274 277 281 285 289 292 296 301 302 298 292 292 295 298 299 299 301 303 304 305 306 307 307 308 309 309 309 309 306 304 302 301 299 297
245 245 243 241 239 238 237 237 237 237 236 235 235 235 236 236 237 239 242 244 246 249 250 251 252 253 255 259 262 264 265 268 272 276 278 278 278 281 285 285 286 287 285 280 278 281 283 279 276 275 274 275 277 282 286 289 293 300 303 300 293 290 293 297 299 299 300 303 305 305 307 310 311 311 312 312 312 313 311 308 306 304 303 302 300
247 246 245 242 240 239 239 238 238 239 237 236 236 235 234 234 236 239 241 242 244 247 248 250 251 253 254 257 260 263 264 265 270 275 276 275 278 282 285 285 285 284 283 280 276 278 280 278 276 276 277 277 279 282 286 290 295 300 300 297 293 293 295 298 298 300 303 306 307 307 310 313 313 312 312 312 313 313 311 307 305 304 303 302 300
248 247 247 245 243 241 240 240 240 240 238 236 236 235 234 233 234 237 240 241 243 246 247 249 251 252 253 255 258 261 262 263 269 274 274 275 280 284 285 285 283 283 282 280 276 276 278 278 277 277 279 280 281 282 285 291 296 296 293 294 296 296 297 299 301 304 306 307 309 310 312 314 314 313 312 311 312 312 309 306 305 304 302 301 299
251 250 249 249 247 244 243 242 243 243 241 239 238 236 235 234 234 237 239 239 241 244 246 248 249 250 252 253 256 259 260 261 267 272 274 279 285 286 287 286 284 283 282 279 276 276 278 279 279 278 279 281 282 283 287 293 295 292 291 294 296 297 299 301 304 306 308 309 310 311 312 314 314 313 312 311 311 312 310 307 306 305 303 301 299
251 251 251 252 252 250 248 246 246 246 244 242 241 239 236 234 234 236 238 238 239 242 244 246 248 249 250 252 255 258 258 259 265 271 275 282 287 287 288 288 285 283 279 276 275 277 278 279 280 279 279 280 282 286 290 292 291 289 290 292 294 297 300 303 305 308 309 309 309 311 313 314 314 313 312 312 313 314 313 310 308 307 305 303 301
Height
3230 3230 3231 3231 3231 3232 3232 3232 3232 3232 3232 3232 3231 3231 3231 3231 3231 3230 3230 3230 3229 3229 3228 3228 3227 3227 3226 3226 3225 3225 3224 3223 3223 3223 3223 3223 3223 3223 3223 3223 3224 3224 3225 3225 3226 3226 3226 3226 3227 3227 3227 3227 3228 3228 3228 3228 3228 3228 3229 3229 3228 3228 3228 3228 3229 3229 3229 3229 3230 3230 3230 3231 3231 3231 3231 3231 3232 3232 3232 3232 3232 3232 3232 3232 3232
3230 3230 3231 3231 3231 3232 3232 3232 3232 3232 3232 3232 3232 3231 3231 3231 3231 3230 3230 3229 3229 3228 3227 3227 3227 3226 3225 3225 3225 3224 3224 3223 3222 3223 3223 3223 3222 3222 3223 3223 3223 3224 3224 3224 3225 3225 3225 3226 3226 3226 3227 3227 3227 3228 3228 3228 3228 3228 3228 3228 3229 3229 3228 3228 3229 3229 3229 3229 3230 3230 3231 3231 3231 3232 3232 3232 3232 3232 3232 3232 3232 3232 3232 3232 3232
3230 3230 3231 3231 3231 3232 3232 3232 3232 3232 3232 3232 3232 3232 3231 3231 3231 3230 3229 3228 3228 3227 3227 3226 3226 3225 3225 3224 3224 3224 3223 3222 3222 3223 3223 3223 3222 3222 3222 3223 3223 3223 3223 3223 3224 3225 3225 3225 3225 3225 3226 3227 3227 3227 3227 3228 3228 3228 3228 3228 3228 3228 3228 3228 3228 3229 3229 3229 3229 3230 3230 3231 3231 3231 3232 3232 3232 3232 3232 3231 3232 3232 3231 3231 3231
3229 3230 3230 3231 3231 3231 3232 3232 3232 3232 3232 3232 3232 3231 3231 3231 3230 3230 3229 3228 3227 3226 3225 3225 3225 3225 3224 3223 3223 3223 3222 3222 3222 3223 3223 3223 3223 3222 3222 3223 3223 3223 3223 3223 3224 3224 3224 3224 3224 3225 3225 3226 3226 3227 3227 3227 3227 3227 3228 3227 3227 3228 3228 3228 3228 3229 3229 3229 3229 3230 3230 3231 3231 3231 3232 3232 3232 3232 3231 3231 3231 3231 3231 3231 3231
3229 3230 3230 3231 3231 3231 3231 3231 3231 3231 3232 3232 3231 3231 3230 3230 3230 3229 3228 3227 3226 3225 3224 3224 3224 3223 3223 3222 3222 3221 3221 3221 3222 3223 3223 3223 3223 3223 3223 3223 3223 3223 3223 3223 3223 3223 3223 3223 3224 3224 3225 3225 3226 3226 3226 3227 3227 3227 3227 3227 3227 3228 3228 3228 3228 3229 3229 3229 3230 3230 3230 3230 3231 3231 3231 3231 3232 3231 3231 3231 3231 3231 3231 3230 3230
3229 3230 3230 3230 3231 3231 3231 3231 3231 3231 3231 3232 3231 3231 3230 3230 3229 3228 3228 3227 3226 3225 3224 3223 3223 3222 3222 3222 3221 3220 3221 3221 3222 3223 3223 3223 3223 3223 3223 3223 3223 3223 3223 3223 3223 3223 3223 3223 3223 3223 3224 3224 3225 3225 3225 3226 3226 3226 3226 3227 3227 3227 3228 3228 3228 3229 3229 3229 3230 3230 3230 3230 3230 3230 3230 3231 3231 3230 3230 3230 3230 3230 3230 3230 3230
3229 3229 3230 3230 3231 3231 3231 3231 3231 3231 3231 3231 3231 3230 3230 3229 3229 3228 3227 3226 3226 3225 3223 3222 3222 3221 3221 3222 3221 3220 3220 3221 3222 3222 3223 3223 3223 3223 3223 3223 3223 3223 3223 3223 3223 3223 3223 3222 3222 3222 3223 3223 3223 3224 3225 3225 3225 3225 3226 3226 3227 3227 3228 3228 3228 3228 3229 3229 3229 3230 3230 3230 3230 3230 3230 3230 3230 3230 3230 3230 3230 3230 3230 3230 3230
3228 3229 3229 3230 3230 3231 3231 3231 3231 3231 3231 3231 3231 3230 3230 3229 3228 3227 3227 3226 3225 3223 3222 3222 3221 3221 3221 3221 3220 3220 3220 3221 3222 3222 3223 3222 3223 3223 3223 3223 3223 3223 3223 3223 3223 3223 3222 3222 3222 3222 3222 3222 3223 3224 3224 3225 3225 3225 3225 3226 3226 3227 3227 3227 3227 3228 3228 3228 3228 3229 3229 3229 3229 3230 3230 3229 3229 3229 3229 3230 3230 3230 3230 3230 3230
3228 3229 3229 3230 3230 3230 3231 3231 3231 3231 3231 3231 3230 3230 3229 3229 3228 3227 3226 3225 3224 3223 3222 3221 3220 3220 3220 3220 3220 3220 3220 3221 3221 3222 3222 3222 3222 3222 3222 3223 3223 3223 3223 3223 3222 3222 3222 3222 3222 3221 3221 3222 3222 3223 3223 3224 3224 3224 3225 3225 3225 3226 3226 3226 3226 3227 3227 3228 3228 3229 3229 3229 3229 3230 3229 3228 3228 3229 3229 3230 3230 3229 3229 3229 3228
3227 3228 3229 3229 3230 3230 3230 3230 3230 3230 3230 3230 3230 3230 3229 3228 3227 3226 3225 3225 3223 3223 3222 3221 3220 3220 3219 3220 3220 3219 3219 3220 3221 3222 3222 3222 3222 3221 3222 3222 3222 3222 3222 3222 3222 3222 3222 3221 3221 3221 3221 3221 3221 3222 3222 3223 3223 3223 3224 3224 3224 3225 3225 3225 3226 3227 3227 3227 3227 3228 3228 3228 3228 3228 3227 3226 3227 3229 3230 3230 3229 3228 3228 3228 3227
3227 3228 3228 3229 3229 3230 3230 3230 3230 3230 3230 3230 3230 3229 3228 3227 3226 3225 3225 3224 3224 3223 3222 3221 3220 3219 3219 3219 3219 3219 3219 3220 3220 3221 3222 3221 3221 3221 3221 3221 3221 3222 3222 3222 3222 3221 3221 3221 3221 3221 3220 3220 3220 3221 3221 3222 3222 3223 3223 3223 3224 3224 3224 3225 3225 3226 3226 3226 3227 3227 3227 3226 3227 3227 3225 3225 3228 3230 3230 3229 3228 3227 3227 3227 3227
3226 3227 3228 3229 3229 3229 3229 3230 3230 3230 3230 3230 3230 3229 3228 3226 3226 3225 3225 3224 3224 3223 3222 3221 3220 3220 3219 3218 3218 3218 3218 3219 3220 3220 3221 3221 3221 3221 3221 3220 3220 3221 3221 3221 3221 3221 3221 3221 3221 3220 3220 3220 3220 3220 3220 3221 3222 3222 3222 3222 3223 3223 3223 3224 3224 3225 3225 3225 3226 3225 3225 3225 3225 3225 3223 3225 3228 3228 3228 3227 3226 3226 3225 3225 3226
3226 3227 3227 3228 3228 3228 3229 3229 3230 3230 3230 3230 3229 3228 3227 3226 3226 3226 3225 3225 3224 3223 3222 3221 3221 3220 3219 3219 3218 3218 3218 3218 3219 3219 3221 3221 3220 3220 3220 3220 3220 3220 3220 3220 3220 3220 3220 3220 3220 3220 3220 3220 3219 3220 3220 3221 3221 3221 3221 3221 3222 3222 3222 3222 3223 3224 3224 3224 3224 3224 3224 3224 3224 3223 3223 3225 3226 3225 3225 3225 3224 3223 3223 3224 3224
3225 3226 3227 3227 3228 3228 3228 3229 3229 3230 3230 3229 3229 3228 3227 3227 3226 3226 3226 3225 3224 3223 3222 3222 3221 3220 3220 3219 3219 3218 3218 3218 3218 3219 3220 3220 3220 3219 3218 3219 3219 3219 3218 3218 3218 3219 3219 3219 3219 3219 3219 3219 3219 3220 3220 3220 3221 3221 3221 3220 3221 3221 3221 3220 3221 3222 3223 3223 3223 3223 3223 3223 3222 3221 3223 3225 3223 3223 3223 3222 3222 3222 3222 3222 3222
3224 3225 3226 3226 3227 3228 3228 3229 3229 3229 3229 3229 3228 3228 3227 3227 3227 3226 3226 3225 3224 3224 3223 3222 3221 3221 3220 3220 3219 3219 3218 3218 3218 3218 3219 3220 3220 3219 3218 3218 3218 3218 3217 3217 3217 3218 3218 3218 3218 3218 3219 3219 3219 3220 3220 3219 3220 3220 3220 3220 3220 3220 3219 3219 3220 3221 3222 3222 3221 3222 3222 3222 3220 3220 3221 3223 3222 3221 3221 3221 3220 3220 3220 3220 3220
3223 3224 3225 3225 3226 3227 3227 3228 3229 3229 3229 3229 3228 3228 3227 3227 3227 3227 3226 3226 3225 3224 3223 3222 3222 3221 3220 3220 3219 3219 3219 3219 3218 3218 3218 3219 3219 3219 3218 3218 3218 3217 3217 3217 3217 3217 3217 3217 3217 3217 3218 3218 3219 3219 3219 3219 3219 3219 3219 3220 3220 3220 3219 3219 3219 3219 3220 3220 3220 3220 3219 3220 3219 3219 3219 3220 3220 3220 3219 3218 3218 3218 3219 3219 3218
3222 3223 3224 3224 3225 3226 3227 3227 3228 3228 3228 3228 3228 3228 3228 3227 3227 3227 3227 3226 3226 3225 3224 3223 3222 3221 3220 3220 3219 3219 3219 3219 3218 3218 3218 3218 3219 3219 3218 3218 3218 3217 3217 3216 3216 3216 3216 3216 3216 3216 3217 3217 3218 3218 3218 3218 3218 3218 3218 3219 3219 3219 3218 3218 3218 3218 3218 3218 3218 3218 3218 3218 3218 3218 3218 3218 3218 3218 3217 3216 3216 3216 3216 3216 3217
3221 3222 3222 3223 3224 3225 3226 3226 3227 3227 3227 3227 3228 3228 3228 3228 3228 3228 3227 3227 3226 3225 3224 3224 3223 3222 3221 3220 3219 3219 3219 3219 3219 3219 3219 3219 3219 3219 3218 3218 3218 3217 3217 3216 3216 3216 3215 3215 3215 3216 3216 3216 3216 3217 3217 3218 3218 3217 3217 3217 3217 3217 3217 3217 3217 3216 3216 3216 3216 3216 3216 3216 3216 3216 3216 3216 3215 3215 3215 3214 3214 3214 3214 3214 3214
3219 3220 3221 3222 3223 3224 3225 3225 3226 3226 3227 3227 3227 3228 3228 3228 3228 3228 3227 3227 3226 3226 3225 3224 3223 3222 3221 3220 3219 3219 3219 3219 3219 3219 3219 3219 3219 3218 3218 3218 3217 3217 3216 3216 3216 3216 3215 3215 3215 3216 3216 3216 3216 3216 3216 3217 3217 3217 3217 3216 3216 3216 3216 3215 3215 3215 3215 3215 3214 3214 3214 3214 3214 3214 3214 3214 3213 3213 3212 3212 3212 3211 3211 3212 3212
3218 3219 3220 3221 3222 3223 3224 3224 3225 3226 3226 3226 3227 3227 3227 3227 3227 3227 3227 3227 3226 3226 3225 3225 3224 3223 3222 3221 3220 3220 3219 3219 3219 3219 3219 3219 3219 3218 3218 3218 3218 3218 3217 3216 3216 3216 3215 3215 3215 3215 3216 3216 3216 3216 3216 3216 3216 3216 3216 3215 3215 3215 3214 3214 3214 3213 3213 3213 3213 3213 3212 3212 3212 3212 3212 3212 3212 3211 3210 3210 3209 3209 3209 3209 3209
3216 3217 3219 3220 3221 3222 3223 3223 3224 3225 3225 3225 3226 3227 3227 3227 3227 3227 3227 3227 3226 3226 3225 3225 3224 3223 3222 3221 3221 3220 3220 3220 3219 3219 3219 3219 3219 3218 3218 3217 3217 3217 3217 3216 3216 3215 3215 3215 3215 3215 3215 3215 3215 3215 3215 3215 3215 3215 3214 3214 3214 3214 3213 3213 3213 3212 3212 3212 3211 3211 3211 3210 3210 3210 3210 3210 3209 3209 3209 3208 3207 3207 3207 3207 3207
3215 3216 3218 3219 3220 3221 3222 3222 3223 3224 3224 3224 3225 3226 3226 3227 3227 3227 3227 3227 3226 3226 3225 3224 3224 3223 3222 3222 3221 3221 3220 3220 3220 3219 3219 3219 3218 3218 3218 3217 3216 3216 3216 3215 3215 3215 3215 3214 3214 3214 3214 3214 3214 3214 3214 3214 3214 3214 3213 3213 3212 3212 3212 3211 3211 3211 3211 3210 3210 3210 3209 3209 3209 3208 3208 3208 3207 3207 3207 3207 3206 3205 3205 3205 3205
3214 3215 3216 3217 3218 3219 3220 3221 3222 3223 3223 3224 3224 3225 3226 3226 3226 3226 3226 3226 3226 3225 3225 3224 3223 3223 3222 3222 3221 3221 3220 3220 3220 3219 3219 3219 3218 3218 3217 3217 3216 3216 3215 3215 3215 3214 3214 3214 3214 3214 3214 3213 3214 3213 3213 3213 3213 3213 3212 3212 3211 3211 3210 3210 3210 3210 3209 3209 3209 3209 3208 3208 3207 3207 3206 3206 3206 3205 3205 3205 3204 3204 3203 3203 3203
3212 3214 3215 3216 3217 3218 3219 3219 3221 3222 3222 3223 3223 3224 3225 3225 3225 3226 3226 3226 3226 3225 3224 3224 3223 3223 3222 3221 3221 3221 3220 3220 3220 3219 3219 3218 3218 3218 3217 3217 3216 3216 3215 3214 3214 3214 3214 3214 3214 3213 3213 3213 3213 3212 3212 3212 3211 3211 3211 3210 3210 3210 3210 3209 3209 3209 3209 3208 3208 3208 3207 3207 3206 3206 3205 3205 3204 3204 3203 3203 3202 3202 3201 3201 3200
3211 3213 3214 3215 3216 3216 3217 3218 3219 3220 3221 3221 3222 3223 3224 3224 3225 3225 3225 3225 3225 3225 3224 3224 3223 3222 3222 3221 3221 3220 3220 3220 3220 3219 3219 3218 3218 3217 3217 3217 3216 3216 3215 3214 3214 3214 3213 3213 3213 3213 3213 3212 3212 3211 3211 3211 3210 3210 3210 3209 3209 3209 3209 3209 3209 3208 3208 3208 3207 3207 3206 3206 3205 3205 3204 3203 3203 3202 3201 3201 3200 3200 3199 3199 3198
3210 3211 3212 3213 3214 3214 3215 3216 3217 3218 3219 3220 3221 3221 3222 3223 3223 3224 3224 3224 3224 3224 3224 3224 3223 3222 3221 3221 3220 3220 3220 3219 3219 3219 3219 3218 3217 3217 3216 3216 3216 3216 3215 3215 3214 3214 3213 3213 3213 3213 3212 3212 3212 3211 3210 3210 3209 3209 3209 3209 3209 3209 3209 3209 3208 3208 3208 3207 3207 3206 3205 3204 3203 3203 3202 3201 3200 3200 3199 3199 3198 3198 3197 3197 3196
3208 3209 3210 3211 3212 3212 3213 3214 3215 3216 3217 3218 3219 3220 3221 3221 3222 3222 3223 3223 3223 3223 3223 3223 3223 3222 3221 3221 3220 3220 3219 3219 3218 3218 3218 3218 3217 3217 3216 3216 3215 3215 3215 3215 3214 3214 3213 3213 3212 3212 3212 3211 3211 3210 3210 3209 3209 3209 3209 3209 3209 3208 3208 3208 3208 3208 3207 3207 3206 3205 3204 3203 3202 3201 3200 3199 3198 3198 3197 3197 3196 3195 3195 3195 3195
3206 3207 3208 3208 3209 3210 3211 3212 3213 3214 3215 3216 3217 3218 3219 3220 3220 3221 3221 3222 3222 3222 3222 3222 3221 3221 3221 3220 3220 3219 3219 3218 3218 3217 3217 3217 3216 3216 3216 3215 3215 3214 3214 3214 3214 3213 3213 3212 3212 3211 3211 3210 3210 3209 3209 3209 3208 3208 3208 3208 3208 3207 3207 3206 3206 3206 3205 3204 3204 3203 3202 3201 3200 3199 3198 3197 3196 3195 3195 3194 3194 3193 3193 3192 3192
3203 3204 3205 3206 3207 3208 3208 3210 3211 3211 3212 3214 3215 3216 3217 3218 3219 3219 3220 3220 3220 3220 3220 3220 3220 3220 3220 3220 3219 3219 3218 3218 3217 3217 3216 3216 3216 3215 3215 3215 3214 3214 3213 3213 3213 3212 3212 3211 3211 3211 3210 3210 3209 3209 3208 3208 3208 3208 3207 3207 3206 3206 3205 3205 3204 3203 3203 3202 3201 3201 3200 3199 3198 3197 3197 3196 3195 3194 3193 3192 3191 3190 3190 3189 3189
3201 3202 3203 3204 3205 3205 3206 3207 3209 3209 3210 3211 3213 3214 3215 3216 3217 3217 3218 3218 3218 3219 3219 3219 3219 3219 3218 3218 3218 3218 3218 3217 3217 3216 3216 3216 3215 3215 3215 3214 3214 3214 3213 3212 3212 3211 3210 3210 3210 3209 3209 3209 3209 3208 3208 3207 3207 3206 3205 3205 3205 3204 3204 3203 3202 3202 3201 3200 3200 3199 3198 3197 3196 3195 3194 3194 3193 3192 3191 3190 3189 3188 3187 3186 3186
3198 3199 3200 3201 3202 3203 3204 3205 3206 3207 3208 3209 3210 3211 3212 3214 3215 3215 3216 3216 3217 3217 3217 3217 3217 3217 3217 3217 3217 3217 3217 3216 3216 3216 3215 3215 3214 3214 3213 3213 3213 3213 3212 3212 3211 3210 3209 3208 3208 3208 3208 3208 3207 3207 3206 3206 3205 3204 3203 3203 3203 3202 3202 3201 3201 3200 3199 3199 3198 3197 3196 3195 3194 3193 3192 3191 3190 3189 3188 3187 3186 3185 3184 3184 3183
3195 3197 3198 3198 3200 3201 3202 3203 3204 3205 3206 3207 3208 3209 3210 3211 3212 3213 3214 3214 3215 3215 3215 3216 3216 3216 3216 3216 3216 3216 3215 3215 3215 3215 3214 3214 3213 3212 3212 3212 3211 3211 3211 3210 3210 3209 3208 3207 3206 3206 3206 3206 3206 3205 3205 3204 3203 3202 3201 3201 3201 3201 3200 3199 3199 3198 3197 3196 3195 3194 3193 3193 3192 3191 3190 3189 3187 3186 3185 3184 3183 3182 3181 3180 3179
3192 3194 3195 3196 3197 3198 3200 3201 3202 3203 3204 3205 3206 3206 3207 3208 3210 3211 3211 3212 3212 3213 3213 3214 3214 3214 3214 3214 3214 3214 3214 3214 3213 3213 3213 3212 3212 3211 3210 3210 3210 3209 3209 3208 3208 3207 3207 3206 3205 3205 3204 3204 3204 3203 3203 3202 3201 3200 3200 3199 3199 3198 3198 3197 3196 3195 3194 3193 3192 3191 3190 3189 3189 3188 3187 3186 3184 3183 3182 3181 3180 3179 3178 3177 3176
3190 3191 3192 3193 3194 3195 3197 3198 3199 3200 3202 3203 3203 3204 3205 3206 3207 3208 3209 3209 3210 3211 3211 3211 3212 3212 3212 3212 3212 3212 3212 3212 3211 3211 3210 3210 3210 3209 3209 3208 3208 3207 3207 3207 3206 3206 3205 3204 3204 3203 3202 3202 3201 3201 3200 3199 3198 3198 3197 3197 3196 3196 3195 3194 3193 3192 3191 3190 3189 3188 3188 3187 3186 3185 3184 3182 3181 3180 3179 3178 3178 3177 3175 3174 3173
3186 3188 3189 3190 3191 3192 3194 3195 3196 3197 3199 3200 3201 3202 3202 3203 3204 3205 3206 3207 3207 3208 3209 3209 3209 3209 3210 3210 3210 3210 3210 3209 3209 3208 3208 3208 3207 3207 3207 3206 3206 3205 3205 3204 3204 3203 3203 3203 3202 3201 3200 3200 3199 3198 3197 3196 3196 3195 3195 3194 3193 3193 3192 3191 3190 3189 3189 3188 3187 3186 3185 3184 3183 3182 3181 3179 3178 3177 3176 3175 3174 3173 3172 3171 3170
3183 3184 3186 3187 3188 3189 3190 3192 3193 3194 3196 3197 3198 3199 3200 3201 3201 3202 3203 3204 3204 3205 3206 3206 3206 3207 3207 3208 3208 3208 3207 3207 3206 3206 3205 3205 3204 3204 3204 3204 3203 3203 3202 3202 3201 3201 3200 3200 3201 3200 3199 3198 3197 3196 3195 3194 3193 3193 3192 3191 3191 3190 3189 3188 3187 3187 3186 3185 3184 3183 3182 3182 3181 3179 3178 3177 3175 3174 3173 3172 3171 3170 3168 3167 3167
3179 3181 3182 3183 3184 3185 3186 3188 3190 3191 3193 3194 3195 3197 3198 3198 3199 3199 3200 3201 3201 3202 3203 3203 3203 3204 3204 3205 3205 3205 3204 3204 3203 3203 3202 3201 3201 3201 3200 3200 3200 3200 3199 3199 3198 3198 3197 3198 3198 3197 3197 3196 3195 3194 3193 3192 3191 3190 3189 3189 3188 3187 3186 3185 3185 3184 3184 3182 3182 3181 3179 3178 3177 3177 3175 3174 3172 3170 3169 3168 3167 3166 3164 3163 3162
3176 3177 3178 3179 3181 3182 3183 3185 3187 3188 3190 3191 3192 3194 3195 3195 3196 3196 3197 3198 3199 3199 3200 3200 3201 3201 3202 3202 3202 3201 3201 3201 3200 3199 3199 3198 3198 3197 3197 3197 3196 3196 3196 3195 3195 3194 3194 3195 3195 3194 3194 3193 3192 3191 3191 3190 3189 3188 3187 3186 3185 3184 3184 3183 3183 3182 3181 3179 3178 3177 3176 3175 3175 3174 3172 3171 3169 3167 3166 3165 3164 3163 3161 3160 3158
3172 3173 3174 3176 3177 3179 3180 3181 3183 3185 3186 3188 3189 3190 3191 3192 3193 3194 3194 3195 3196 3197 3197 3198 3198 3198 3198 3198 3198 3198 3198 3197 3196 3195 3195 3195 3194 3194 3193 3193 3193 3192 3192 3192 3192 3191 3191 3191 3192 3192 3191 3190 3189 3189 3188 3187 3186 3185 3184 3183 3183 3182 3181 3181 3180 3178 3177 3176 3175 3174 3173 3172 3171 3170 3169 3167 3165 3163 3162 3161 3161 3159 3158 3156 3155
3168 3169 3171 3172 3174 3175 3176 3177 3179 3181 3183 3184 3185 3187 3188 3189 3190 3191 3192 3192 3193 3194 3194 3194 3194 3195 3195 3195 3195 3195 3195 3194 3193 3192 3192 3192 3191 3190 3190 3189 3189 3189 3189 3189 3188 3188 3188 3188 3189 3189 3188 3187 3186 3186 3185 3184 3183 3183 3182 3181 3180 3180 3179 3178 3176 3174 3173 3173 3172 3171 3170 3170 3169 3167 3165 3163 3162 3160 3158 3157 3156 3155 3153 3152 3150
3165 3166 3167 3169 3170 3171 3172 3174 3176 3177 3178 3180 3181 3183 3184 3186 3187 3188 3189 3189 3190 3191 3191 3191 3191 3191 3192 3192 3192 3193 3192 3191 3190 3190 3190 3189 3188 3187 3186 3186 3186 3185 3186 3185 3185 3185 3185 3185 3185 3185 3185 3184 3184 3183 3182 3182 3181 3180 3179 3178 3177 3177 3175 3174 3173 3171 3169 3168 3168 3167 3167 3166 3165 3163 3161 3160 3158 3156 3154 3152 3151 3149 3148 3146 3144
3161 3162 3164 3165 3166 3167 3168 3170 3171 3173 3174 3176 3178 3180 3181 3183 3183 3184 3185 3186 3187 3187 3187 3187 3187 3188 3189 3189 3189 3189 3189 3188 3188 3187 3187 3186 3185 3184 3183 3182 3182 3182 3182 3182 3182 3182 3182 3181 3182 3182 3181 3181 3180 3180 3179 3179 3178 3177 3176 3175 3174 3173 3171 3169 3168 3167 3165 3165 3164 3163 3163 3162 3160 3158 3157 3156 3154 3152 3150 3148 3146 3144 3143 3141 3139
3158 3159 3160 3161 3162 3163 3164 3166 3167 3168 3170 3172 3175 3176 3178 3179 3180 3181 3182 3183 3183 3184 3184 3184 3184 3185 3185 3185 3185 3185 3186 3185 3185 3184 3183 3183 3182 3181 3180 3179 3179 3179 3179 3179 3179 3179 3178 3178 3178 3178 3177 3177 3177 3176 3176 3175 3175 3174 3173 3171 3170 3168 3166 3165 3164 3164 3162 3162 3160 3160 3160 3159 3157 3155 3154 3153 3150 3148 3146 3144 3142 3140 3138 3137 3135
3155 3155 3156 3157 3158 3160 3161 3162 3163 3164 3167 3169 3171 3172 3174 3175 3176 3177 3178 3179 3179 3180 3180 3180 3181 3182 3182 3181 3181 3182 3183 3183 3182 3181 3180 3180 3179 3178 3177 3176 3175 3175 3176 3176 3176 3175 3175 3174 3174 3174 3174 3174 3173 3173 3172 3172 3171 3170 3169 3168 3166 3164 3162 3162 3161 3160 3159 3158 3157 3156 3156 3155 3154 3152 3151 3150 3147 3145 3143 3141 3139 3136 3134 3133 3131
3151 3152 3153 3154 3155 3156 3157 3158 3159 3161 3163 3165 3167 3168 3170 3172 3173 3173 3174 3175 3175 3176 3176 3177 3178 3178 3178 3177 3178 3178 3179 3179 3178 3177 3176 3176 3176 3175 3174 3173 3172 3172 3173 3173 3172 3172 3171 3170 3170 3170 3170 3170 3170 3169 3169 3168 3167 3166 3165 3163 3162 3160 3159 3159 3158 3157 3156 3155 3154 3152 3151 3151 3149 3147 3146 3145 3143 3141 3140 3137 3135 3132 3130 3128 3126
3147 3148 3149 3150 3151 3152 3153 3154 3155 3157 3159 3161 3162 3164 3166 3168 3169 3169 3170 3171 3171 3171 3172 3173 3173 3174 3174 3174 3174 3175 3174 3175 3174 3173 3172 3172 3172 3171 3170 3169 3169 3169 3169 3169 3169 3168 3167 3166 3166 3167 3167 3166 3166 3165 3165 3164 3163 3162 3161 3159 3158 3157 3156 3156 3155 3154 3153 3152 3150 3148 3146 3146 3145 3142 3141 3140 3138 3137 3135 3132 3130 3128 3126 3124 3122
3143 3144 3145 3146 3147 3148 3149 3150 3151 3152 3154 3156 3157 3159 3161 3163 3164 3165 3165 3166 3167 3167 3168 3169 3169 3169 3170 3170 3170 3170 3170 3171 3171 3170 3169 3168 3168 3167 3166 3166 3166 3166 3165 3165 3165 3164 3163 3163 3163 3163 3163 3162 3162 3162 3161 3161 3160 3159 3157 3156 3155 3154 3153 3153 3152 3151 3150 3148 3147 3144 3142 3142 3140 3137 3136 3135 3133 3132 3130 3128 3125 3123 3121 3119 3117
3138 3140 3141 3142 3143 3144 3144 3145 3146 3146 3149 3150 3152 3154 3156 3158 3160 3160 3160 3161 3162 3163 3164 3164 3164 3164 3165 3166 3166 3166 3166 3167 3167 3166 3165 3164 3164 3163 3163 3163 3162 3162 3161 3161 3161 3160 3159 3159 3159 3159 3159 3159 3158 3158 3158 3157 3156 3156 3154 3153 3152 3151 3150 3149 3149 3148 3146 3144 3142 3140 3138 3137 3135 3133 3131 3130 3129 3128 3127 3124 3122 3120 3118 3115 3113
3133 3135 3136 3137 3138 3139 3140 3140 3141 3142 3144 3145 3146 3149 3151 3153 3154 3154 3155 3156 3157 3158 3159 3159 3159 3160 3161 3162 3162 3162 3162 3163 3163 3162 3161 3160 3160 3160 3159 3159 3159 3158 3158 3157 3157 3156 3155 3155 3155 3156 3156 3155 3155 3155 3155 3154 3153 3152 3151 3150 3149 3148 3147 3146 3145 3144 3143 3140 3138 3136 3134 3133 3132 3129 3127 3126 3126 3125 3123 3120 3118 3116 3114 3112 3109
3128 3130 3131 3133 3134 3135 3135 3136 3137 3138 3139 3140 3142 3144 3146 3148 3149 3150 3151 3151 3152 3153 3154 3154 3154 3155 3156 3157 3157 3157 3158 3159 3159 3158 3157 3157 3156 3156 3156 3156 3155 3155 3154 3154 3153 3152 3151 3151 3151 3151 3152 3151 3151 3151 3151 3150 3150 3149 3148 3147 3146 3144 3143 3143 3141 3141 3139 3137 3134 3132 3131 3129 3128 3126 3123 3122 3122 3122 3120 3117 3115 3113 3111 3108 3106
3123 3124 3126 3128 3129 3130 3132 3133 3133 3134 3134 3135 3136 3138 3141 3143 3145 3145 3146 3146 3147 3148 3149 3148 3148 3150 3152 3152 3153 3153 3154 3155 3155 3153 3153 3153 3153 3153 3153 3152 3152 3151 3151 3150 3149 3148 3148 3147 3147 3147 3148 3148 3148 3147 3147 3147 3146 3146 3145 3144 3143 3142 3141 3139 3138 3137 3136 3133 3131 3129 3127 3126 3125 3123 3120 3118 3117 3117 3117 3115 3112 3110 3107 3104 3102